Powrót do katalogu

STARLINK-5897

AktywnyŁącznośćVLEO
NORAD 55931·PAYLOAD·🇺🇸 United States

Wystrzelony Mar 17, 2023 z Vandenberg Space Force Base

Loading…

Następne Przeloty (najbliższe 24 godziny)

TLE

ŚwieżeSource: CelesTrak SupGP

Epoka: Sep 15, 2026, 02:31 UTC

1 55931C 23037T   26258.10534722 -.00006344  00000+0 -53165-3 0  2584
2 55931  70.0024 186.6941 0002942 271.3968 108.5307 14.98332361    11

Śledź STARLINK-5897 w czasie rzeczywistym z AllMySat

Download on the App Store